Location: Limoges
(45.8354°N, 1.2645°E)
Time: 10:15:58
(UTC+01:00)

ISS - Visible Passes

Search period start: 29 November 2023 00:00
Search period end: 09 December 2023 00:00
Orbit: 416 x 418 km, 51.6° (Epoch: 29 November)

Date Brightness Start Highest point End Pass type
(mag) Time Alt. Az. Time Alt. Az. Time Alt. Az.
29 Nov -2.7 18:16:06 10° WNW 18:19:11 32° N 18:21:01 19° ENE visible
29 Nov -1.1 19:52:52 10° WNW 19:53:56 19° WNW 19:53:56 19° WNW visible
30 Nov -3.6 19:04:32 10° WNW 19:07:42 59° N 19:07:42 59° N visible
01 Dec -3.3 18:16:10 10° NW 18:19:25 44° NNE 18:21:32 19° E visible
01 Dec -1.2 19:52:59 10° WNW 19:54:28 22° W 19:54:28 22° W visible
02 Dec -3.5 19:04:28 10° WNW 19:07:48 64° SSW 19:08:25 51° SSE visible
03 Dec -3.8 18:15:59 10° WNW 18:19:21 83° NNE 18:22:32 11° ESE visible
03 Dec -1.0 19:53:29 10° W 19:55:29 17° SW 19:55:29 17° SW visible
04 Dec -1.7 19:04:30 10° W 19:07:23 26° SW 19:09:52 12° SSE visible
05 Dec -2.5 18:15:44 10° WNW 18:18:57 42° SW 18:22:07 10° SE visible
06 Dec -0.4 19:05:38 10° WSW 19:06:35 11° SW 19:07:32 10° SSW visible
07 Dec -0.7 18:15:48 10° W 18:18:10 18° SW 18:20:31 10° S visible
